Weather History for Monett, MO

Change the Weather History Date:

Tuesday, January 22, 2013

  Actual Average (KJLN) Record (KJLN)
Temperature  
Mean Temperature 27 °F 35 °F  
Max Temperature 35 °F 45 °F 73 °F (1967)
Min Temperature 19 °F 25 °F 3 °F (1963)
Degree Days  
Heating Degree Days 38 30  
Month to date heating degree days 660  
Since 1 July heating degree days 2277  
Cooling Degree Days 0 0  
Month to date cooling degree days 0  
Year to date cooling degree days 0  
Moisture  
Dew Point 17 °F    
Average Humidity 66    
Maximum Humidity 80    
Minimum Humidity 55    
Precipitation  
Precipitation 0.00 in 0.06 in 0.50 in (1982)
Month to date precipitation 1.45  
Year to date precipitation 1.45  
Sea Level Pressure  
Sea Level Pressure 30.26 in    
Wind  
Wind Speed 6 mph (ESE)    
Max Wind Speed 13 mph    
Max Gust Speed -    
Visibility 10 miles    
Events      
T = Trace of Precipitation, MM = Missing Value Source: NWS Daily Summary

Daily Weather History Graph

Daily Weather History Graph

Search for Another Location

Airport:

Trip Planner

Search our weather history database for the weather conditions in past years. The results will help you decide how hot, cold, wet, or windy it might be!

Date:

Astronomy

Jan. 22, 2013 Rise Set
Actual Time 7:25 AM CST 5:30 PM CST
Civil Twilight 6:57 AM CST 5:58 PM CST
Nautical Twilight 6:25 AM CST 6:30 PM CST
Astronomical Twilight 5:54 AM CST 7:01 PM CST
Moon 1:55 PM CST (1/22) 3:46 AM CST (1/22)
Length of Visible Light 11h 01m
Length of Day
10h 05m
Waxing Gibbous, 83% of the Moon is Illuminated
Jan 22
Waxing Gibbous
Jan 26
Full
Feb 3
Last Quarter
Feb 10
New
Feb 17
First Quarter

Hourly Weather History & Observations

Time (CST) Temp. Windchill Dew Point Humidity Pressure Visibility Wind Dir Wind Speed Gust Speed Precip Events Conditions
12:15 AM 21.2 °F 13.6 °F 12.2 °F 68% 30.30 in 10.0 mi East 5.8 mph - N/A   Clear
12:35 AM 21.2 °F 14.9 °F 12.2 °F 68% 30.30 in 10.0 mi East 4.6 mph - N/A   Clear
1:15 AM 21.2 °F 16.4 °F 12.2 °F 68% 30.30 in 10.0 mi East 3.5 mph - N/A   Clear
1:35 AM 19.4 °F 14.3 °F 12.2 °F 74% 30.30 in 10.0 mi ESE 3.5 mph - N/A   Clear
1:55 AM 19.4 °F 10.4 °F 12.2 °F 74% 30.28 in 10.0 mi ESE 6.9 mph - N/A   Clear
2:15 AM 19.4 °F 11.5 °F 14.0 °F 80% 30.29 in 10.0 mi ESE 5.8 mph - N/A   Clear
2:35 AM 21.2 °F 13.6 °F 14.0 °F 74% 30.28 in 10.0 mi East 5.8 mph - N/A   Clear
2:55 AM 21.2 °F 12.6 °F 14.0 °F 74% 30.28 in 10.0 mi ESE 6.9 mph - N/A   Clear
3:15 AM 23.0 °F 18.4 °F 14.0 °F 68% 30.29 in 10.0 mi East 3.5 mph - N/A   Clear
3:35 AM 23.0 °F 18.4 °F 14.0 °F 68% 30.29 in 10.0 mi East 3.5 mph - N/A   Clear
3:55 AM 23.0 °F 18.4 °F 14.0 °F 68% 30.28 in 10.0 mi East 3.5 mph - N/A   Clear
4:15 AM 23.0 °F 18.4 °F 15.8 °F 74% 30.27 in 10.0 mi ESE 3.5 mph - N/A   Clear
4:35 AM 23.0 °F 18.4 °F 15.8 °F 74% 30.28 in 10.0 mi East 3.5 mph - N/A   Clear
4:55 AM 23.0 °F - 15.8 °F 74% 30.28 in 10.0 mi Calm Calm - N/A   Clear
5:15 AM 23.0 °F 17.0 °F 15.8 °F 74% 30.27 in 10.0 mi East 4.6 mph - N/A   Clear
5:35 AM 23.0 °F 17.0 °F 14.0 °F 68% 30.28 in 10.0 mi ESE 4.6 mph - N/A   Clear
5:55 AM 21.2 °F 16.4 °F 14.0 °F 74% 30.28 in 10.0 mi East 3.5 mph - N/A   Clear
6:15 AM 21.2 °F - 14.0 °F 74% 30.29 in 10.0 mi Calm Calm - N/A   Clear
6:35 AM 21.2 °F 13.6 °F 14.0 °F 74% 30.28 in 10.0 mi East 5.8 mph - N/A   Clear
6:55 AM 21.2 °F 13.6 °F 12.2 °F 68% 30.29 in 10.0 mi ENE 5.8 mph - N/A   Clear
7:15 AM 21.2 °F 13.6 °F 14.0 °F 74% 30.29 in 10.0 mi East 5.8 mph - N/A   Clear
7:35 AM 21.2 °F 12.6 °F 12.2 °F 68% 30.30 in 10.0 mi East 6.9 mph - N/A   Clear
7:55 AM 21.2 °F 12.6 °F 14.0 °F 74% 30.30 in 10.0 mi East 6.9 mph - N/A   Clear
8:15 AM 23.0 °F 14.7 °F 14.0 °F 68% 30.30 in 10.0 mi East 6.9 mph - N/A   Clear
8:35 AM 23.0 °F 13.1 °F 14.0 °F 68% 30.30 in 10.0 mi East 9.2 mph - N/A   Clear
8:55 AM 24.8 °F 13.4 °F 15.8 °F 69% 30.29 in 10.0 mi ESE 12.7 mph - N/A   Clear
9:15 AM 26.6 °F 16.2 °F 15.8 °F 64% 30.28 in 10.0 mi SE 11.5 mph - N/A   Clear
9:55 AM 28.4 °F 19.1 °F 17.6 °F 64% 30.29 in 10.0 mi ESE 10.4 mph - N/A   Scattered Clouds
10:15 AM 30.2 °F 21.3 °F 19.4 °F 64% 30.29 in 10.0 mi ESE 10.4 mph - N/A   Mostly Cloudy
10:35 AM 30.2 °F 22.6 °F 19.4 °F 64% 30.30 in 10.0 mi ESE 8.1 mph - N/A   Overcast
10:55 AM 30.2 °F 24.3 °F 19.4 °F 64% 30.32 in 10.0 mi ESE 5.8 mph - N/A   Overcast
11:15 AM 32.0 °F 25.6 °F 19.4 °F 60% 30.31 in 10.0 mi East 6.9 mph - N/A   Overcast
11:35 AM 32.0 °F 26.4 °F 17.6 °F 55% 30.31 in 10.0 mi East 5.8 mph - N/A   Overcast
11:55 AM 32.0 °F 25.6 °F 19.4 °F 60% 30.30 in 10.0 mi ESE 6.9 mph - N/A   Overcast
12:15 PM 32.0 °F 24.8 °F 19.4 °F 60% 30.28 in 10.0 mi ESE 8.1 mph - N/A   Overcast
12:35 PM 32.0 °F 24.8 °F 19.4 °F 60% 30.27 in 10.0 mi ESE 8.1 mph - N/A   Overcast
12:55 PM 32.0 °F 24.8 °F 19.4 °F 60% 30.26 in 10.0 mi ESE 8.1 mph - N/A   Overcast
1:15 PM 32.0 °F 24.8 °F 19.4 °F 60% 30.25 in 10.0 mi East 8.1 mph - N/A   Overcast
1:35 PM 33.8 °F 27.0 °F 19.4 °F 56% 30.25 in 10.0 mi East 8.1 mph - N/A   Overcast
1:55 PM 33.8 °F 27.7 °F 19.4 °F 56% 30.25 in 10.0 mi East 6.9 mph - N/A   Overcast
2:15 PM 33.8 °F 27.7 °F 19.4 °F 56% 30.23 in 10.0 mi East 6.9 mph - N/A   Overcast
2:35 PM 33.8 °F 27.0 °F 19.4 °F 56% 30.23 in 10.0 mi East 8.1 mph - N/A   Overcast
2:55 PM 33.8 °F 25.8 °F 21.2 °F 60% 30.23 in 10.0 mi East 10.4 mph - N/A   Overcast
3:15 PM 35.6 °F 29.2 °F 21.2 °F 56% 30.22 in 10.0 mi ESE 8.1 mph - N/A   Overcast
3:35 PM 33.8 °F 27.0 °F 19.4 °F 56% 30.22 in 10.0 mi ESE 8.1 mph - N/A   Overcast
3:55 PM 35.6 °F 28.0 °F 21.2 °F 56% 30.21 in 10.0 mi East 10.4 mph - N/A   Overcast
4:15 PM 35.6 °F 28.6 °F 21.2 °F 56% 30.20 in 10.0 mi ESE 9.2 mph - N/A   Scattered Clouds
4:35 PM 33.8 °F 26.4 °F 21.2 °F 60% 30.20 in 10.0 mi ESE 9.2 mph - N/A   Clear
4:55 PM 33.8 °F 27.7 °F 19.4 °F 56% 30.21 in 10.0 mi ESE 6.9 mph - N/A   Clear
5:15 PM 32.0 °F 24.2 °F 19.4 °F 60% 30.20 in 10.0 mi ESE 9.2 mph - N/A   Clear
5:35 PM 32.0 °F 25.6 °F 19.4 °F 60% 30.20 in 10.0 mi East 6.9 mph - N/A   Clear
5:55 PM 30.2 °F 24.3 °F 19.4 °F 64% 30.20 in 10.0 mi East 5.8 mph - N/A   Clear
6:15 PM 32.0 °F 26.4 °F 19.4 °F 60% 30.20 in 10.0 mi East 5.8 mph - N/A   Clear
6:35 PM 30.2 °F 25.4 °F 19.4 °F 64% 30.21 in 10.0 mi East 4.6 mph - N/A   Clear
6:55 PM 30.2 °F 25.4 °F 19.4 °F 64% 30.21 in 10.0 mi East 4.6 mph - N/A   Clear
7:15 PM 30.2 °F 24.3 °F 19.4 °F 64% 30.21 in 10.0 mi East 5.8 mph - N/A   Clear
7:35 PM 28.4 °F 20.4 °F 19.4 °F 69% 30.21 in 10.0 mi ESE 8.1 mph - N/A   Clear
7:55 PM 28.4 °F 19.7 °F 19.4 °F 69% 30.20 in 10.0 mi ESE 9.2 mph - N/A   Clear
8:15 PM 28.4 °F 20.4 °F 19.4 °F 69% 30.20 in 10.0 mi SE 8.1 mph - N/A   Clear
8:35 PM 28.4 °F 20.4 °F 19.4 °F 69% 30.21 in 10.0 mi ESE 8.1 mph - N/A   Clear
8:55 PM 28.4 °F 20.4 °F 19.4 °F 69% 30.21 in 10.0 mi ESE 8.1 mph - N/A   Clear
9:15 PM 28.4 °F 21.2 °F 19.4 °F 69% 30.22 in 10.0 mi ESE 6.9 mph - N/A   Clear
9:35 PM 28.4 °F 21.2 °F 19.4 °F 69% 30.22 in 10.0 mi ESE 6.9 mph - N/A   Clear
9:55 PM 28.4 °F 20.4 °F 19.4 °F 69% 30.22 in 10.0 mi ESE 8.1 mph - N/A   Clear
10:15 PM 28.4 °F 21.2 °F 17.6 °F 64% 30.23 in 10.0 mi ESE 6.9 mph - N/A   Clear
10:35 PM 28.4 °F 22.2 °F 19.4 °F 69% 30.23 in 10.0 mi ESE 5.8 mph - N/A   Clear
10:55 PM 28.4 °F 20.4 °F 19.4 °F 69% 30.23 in 10.0 mi ESE 8.1 mph - N/A   Clear
11:15 PM 26.6 °F 19.1 °F 19.4 °F 74% 30.23 in 10.0 mi SE 6.9 mph - N/A   Clear
11:35 PM 26.6 °F 19.1 °F 19.4 °F 74% 30.23 in 10.0 mi ESE 6.9 mph - N/A   Clear
11:55 PM 26.6 °F 20.0 °F 19.4 °F 74% 30.23 in 10.0 mi ESE 5.8 mph - N/A   Clear